Location: Six Mile Lake
(44.9000°N, 79.7170°W)
Time: 17:24:54
(UTC-04:00)

BEESAT - Visible Passes

Search period start: 27 June 2022 00:00
Search period end: 07 July 2022 00:00
Orbit: 698 x 708 km, 98.6° (Epoch: 27 June)

Date Brightness Start Highest point End Pass type
(mag) Time Alt. Az. Time Alt. Az. Time Alt. Az.
27 Jun ? 23:16:30 10° NNW 23:19:27 17° WNW 23:22:24 10° W visible
28 Jun ? 22:20:34 10° N 22:25:09 48° WNW 22:29:44 10° SW visible
29 Jun ? 23:04:17 10° NNW 23:07:47 21° WNW 23:11:18 10° WSW visible
30 Jun ? 22:08:40 10° N 22:13:24 63° WNW 22:18:06 10° SSW visible
01 Jul ? 22:52:10 10° N 22:56:06 26° WNW 23:00:03 10° WSW visible
02 Jul ? 21:56:49 10° NNE 22:01:37 82° WNW 22:06:23 10° SSW visible
02 Jul ? 23:36:59 10° NW 23:38:33 12° WNW 23:40:07 10° WNW visible
03 Jul ? 22:40:08 10° N 22:44:24 33° WNW 22:48:39 10° SW visible
04 Jul ? 21:45:01 10° NNE 21:49:49 77° ESE 21:54:35 10° S visible
04 Jul ? 23:24:19 10° NNW 23:26:55 15° WNW 23:29:30 10° W visible
05 Jul ? 22:28:09 10° N 22:32:40 42° WNW 22:37:09 10° SW visible
06 Jul ? 23:12:00 10° NNW 23:15:15 19° WNW 23:18:30 10° WSW visible
